Regional Weather Roundup
Issued by NWS Cleveland, OH

Home | Current Version | Previous Version | Text Only | Print | Product List | Glossary Off
Versions: 1 2 3 4 5 6 7 8 9 10 11 12 13 14 15 16 17 18 19 20 21 22 23 24 25 26 27 28 29 30 31 32 33 34 35 36 37 38 39 40 41 42 43 44 45 46 47 48 49 50

000
ASUS41 KCLE 301610
RWRCLE
OHIO REGIONAL WEATHER ROUNDUP
NATIONAL WEATHER SERVICE CLEVELAND, OH
1200 PM EDT TUE JUN 30 2015

NOTE: "FAIR" INDICATES FEW OR NO CLOUDS BELOW 12,000 FEET WITH NO
SIGNIFICANT WEATHER AND/OR OBSTRUCTIONS TO VISIBILITY.

OHZ001>008-015>018-024>027-034-035-043-044-301700-
   NORTHWEST OHIO

CITY           SKY/WX    TMP DP  RH WIND       PRES   REMARKS
DEFIANCE       LGT RAIN  68  62  81 SW5       29.82S
FINDLAY        LGT RAIN  69  65  86 S8        29.82S
TOLEDO EXPRESS CLOUDY    70  61  73 S7        29.80F
TOLEDO EXEC    CLOUDY    70  60  70 SW7       29.82S
LIMA           LGT RAIN  66  64  93 SW7       29.83S
$$

OHZ009>014-019>023-028>033-038-089-301700-
   NORTHEAST OHIO

CITY           SKY/WX    TMP DP  RH WIND       PRES   REMARKS
CLE-HOPKINS    PTSUNNY   72  60  66 W12       29.83F
CLE-LAKEFRONT  PTSUNNY   70  62  76 NW8       29.81S
CUY CO. ARPT   PTSUNNY   73  63  68 SW12      29.82F
LORAIN-ELYRIA  MOSUNNY   72  61  68 W9        29.82F
ASHTABULA      CLOUDY    70  60  70 SW15      29.83F
AKRON-CANTON   CLOUDY    71  62  73 SW10G21   29.85F
WOOSTER        PTSUNNY   71  62  73 SW7       29.85F
MANSFIELD      CLOUDY    69  62  78 S7        29.85F
YOUNGSTOWN     CLOUDY    71  61  70 SW12      29.85S
$$

OHZ042-051>053-060>062-070>072-077>081-301700-
  SOUTHWEST OHIO

CITY           SKY/WX    TMP DP  RH WIND       PRES   REMARKS
CINC-COVINGTON MOSUNNY   76  66  71 SW14G21   29.88F
CINC-LUNKEN    PTSUNNY   76  67  73 SW9       29.86F
HAMILTON       PTSUNNY   75  67  76 W9        29.87S THUNDER
DAYTON         CLOUDY    73  65  75 SW10      29.86S
WRIGHT-PAT AFB PTSUNNY   73  65  74 SW10      29.84F
DAYTON GENERAL PTSUNNY   68  63  84 SW9       29.86R THUNDER
WILMINGTON     PTSUNNY   72  64  76 SW13      29.86F
$$

OHZ036-037-039>041-045>050-054>059-063>069-073>076-082>088-301700-
  CENTRAL AND SOUTHEAST OHIO

CITY           SKY/WX    TMP DP  RH WIND       PRES   REMARKS
COLUMBUS       PTSUNNY   73  64  73 S12       29.85S
OSU AIRPORT    CLOUDY    73  63  70 SW7       29.85S
BOLTON FIELD   PTSUNNY   73  66  78 SW12      29.86F
RICKENBACK AFB PTSUNNY   74  66  75 SW13      29.85F
NEWARK         PTSUNNY   74  65  73 SW10      29.85F
MARION         PTSUNNY   71  64  78 SW10      29.84F
LANCASTER      PTSUNNY   74  66  76 SW12      29.87S
ZANESVILLE     NOT AVBL
NEW PHILLY     LGT RAIN  68  64  87 SW10G17   29.86S
$$



USA.gov is the U.S. government's official web portal to all federal, state and local government web resources and services.